| time (UTC) | temp F | wind direction | speed MPH | gust MPH | rain 1hr in | rain 24hr in | rain mn in | humidity % | barometer mb |
| 20260905091253 | 49 | 106 | 0.0 | 0.0 | 0.00 | 0.04 | 0.00 | 99 | 1015.4 |
| 20260905090231 | 49 | 106 | 0.0 | 0.0 | 0.00 | 0.04 | 0.00 | 99 | 1015.5 |
| 20260905085225 | 49 | 106 | 0.0 | 0.0 | 0.00 | 0.04 | 0.00 | 99 | 1015.4 |
| 20260905084205 | 49 | 106 | 0.0 | 0.0 | 0.00 | 0.04 | 0.00 | 99 | 1015.3 |
| 20260905083158 | 50 | 106 | 0.0 | 0.0 | 0.00 | 0.04 | 0.00 | 99 | 1015.3 |
| 20260905082149 | 50 | 106 | 0.0 | 0.0 | 0.00 | 0.04 | 0.00 | 99 | 1015.2 |
| 20260905081125 | 50 | 106 | 0.0 | 0.0 | 0.00 | 0.04 | 0.00 | 99 | 1015.2 |
| 20260905080120 | 50 | 104 | 0.0 | 0.0 | 0.00 | 0.04 | 0.00 | 99 | 1015.1 |
| 20260905075103 | 50 | 104 | 0.0 | 0.0 | 0.00 | 0.04 | 0.04 | 98 | 1015.3 |
| 20260905074044 | 51 | 104 | 0.0 | 0.0 | 0.00 | 0.04 | 0.04 | 98 | 1015.2 |
| 20260905073014 | 51 | 104 | 0.0 | 0.0 | 0.00 | 0.04 | 0.04 | 98 | 1015.2 |
| 20260905071945 | 51 | 104 | 0.0 | 0.0 | 0.00 | 0.04 | 0.04 | 98 | 1014.9 |
| 20260905070939 | 51 | 104 | 0.0 | 0.0 | 0.00 | 0.04 | 0.04 | 98 | 1014.9 |
| 20260905065915 | 52 | 104 | 0.0 | 0.0 | 0.00 | 0.04 | 0.04 | 97 | 1015.0 |
| 20260905064843 | 52 | 104 | 0.0 | 0.0 | 0.00 | 0.05 | 0.04 | 97 | 1014.8 |
| 20260905063809 | 52 | 104 | 0.0 | 0.0 | 0.00 | 0.06 | 0.04 | 97 | 1014.8 |
| 20260905062752 | 53 | 104 | 0.0 | 0.0 | 0.00 | 0.07 | 0.04 | 97 | 1014.6 |
| 20260905061720 | 53 | 104 | 0.0 | 0.0 | 0.00 | 0.07 | 0.04 | 96 | 1014.6 |
| 20260905060717 | 53 | 104 | 0.0 | 0.0 | 0.00 | 0.08 | 0.04 | 96 | 1014.5 |
| 20260905055710 | 53 | 104 | 0.0 | 0.0 | 0.00 | 0.08 | 0.04 | 96 | 1014.5 |
| 20260905054659 | 54 | 104 | 0.0 | 0.0 | 0.00 | 0.08 | 0.04 | 96 | 1014.3 |
| 20260905053648 | 54 | 104 | 0.0 | 0.0 | 0.00 | 0.08 | 0.04 | 95 | 1014.4 |
| 20260905052644 | 54 | 104 | 0.0 | 0.0 | 0.00 | 0.09 | 0.04 | 94 | 1014.5 |
| 20260905051629 | 54 | 104 | 0.0 | 0.0 | 0.00 | 0.09 | 0.04 | 94 | 1014.5 |
| 20260905050619 | 54 | 104 | 0.0 | 0.0 | 0.00 | 0.09 | 0.04 | 93 | 1014.4 |
| 20260905045606 | 55 | 104 | 0.0 | 0.0 | 0.00 | 0.09 | 0.04 | 92 | 1014.3 |
| 20260905044547 | 55 | 104 | 0.0 | 0.0 | 0.00 | 0.09 | 0.04 | 91 | 1014.4 |
| 20260905043541 | 55 | 104 | 0.0 | 0.0 | 0.00 | 0.09 | 0.04 | 91 | 1014.6 |
| 20260905042517 | 55 | 104 | 0.0 | 0.0 | 0.00 | 0.09 | 0.04 | 90 | 1014.5 |
| 20260905041511 | 56 | 104 | 0.0 | 0.0 | 0.00 | 0.09 | 0.04 | 90 | 1014.5 |
| 20260905040501 | 56 | 102 | 0.0 | 0.0 | 0.00 | 0.09 | 0.04 | 89 | 1014.5 |
| 20260905035448 | 56 | 103 | 0.0 | 0.0 | 0.00 | 0.09 | 0.04 | 89 | 1014.3 |
| 20260905034419 | 56 | 103 | 0.0 | 0.0 | 0.00 | 0.09 | 0.04 | 89 | 1014.2 |
| 20260905033410 | 56 | 102 | 0.0 | 0.0 | 0.00 | 0.09 | 0.04 | 88 | 1014.2 |
| 20260905032400 | 56 | 103 | 0.0 | 0.0 | 0.00 | 0.09 | 0.04 | 87 | 1014.1 |
| 20260905031346 | 57 | 104 | 0.0 | 0.0 | 0.00 | 0.09 | 0.04 | 85 | 1014.1 |
| 20260905030339 | 57 | 104 | 0.0 | 0.0 | 0.00 | 0.09 | 0.04 | 84 | 1013.8 |
| 20260905025332 | 58 | 104 | 0.0 | 0.0 | 0.00 | 0.09 | 0.04 | 83 | 1014.0 |
| 20260905024304 | 58 | 101 | 0.0 | 0.0 | 0.00 | 0.09 | 0.04 | 84 | 1013.7 |
| 20260905023302 | 58 | 100 | 0.0 | 0.0 | 0.00 | 0.09 | 0.04 | 82 | 1013.5 |
| 20260905022248 | 59 | 101 | 0.0 | 0.0 | 0.00 | 0.09 | 0.04 | 82 | 1013.5 |
| 20260905021237 | 59 | 99 | 0.0 | 0.0 | 0.00 | 0.09 | 0.04 | 79 | 1013.7 |
| 20260905020229 | 60 | 109 | 0.0 | 0.0 | 0.00 | 0.09 | 0.04 | 78 | 1013.6 |
| 20260905015222 | 60 | 107 | 0.0 | 0.0 | 0.00 | 0.09 | 0.04 | 78 | 1013.7 |
| 20260905014204 | 61 | 106 | 0.0 | 0.0 | 0.00 | 0.13 | 0.04 | 76 | 1013.6 |
| 20260905013159 | 61 | 107 | 0.0 | 0.0 | 0.00 | 0.17 | 0.04 | 75 | 1013.5 |
| 20260905012149 | 61 | 106 | 0.0 | 0.0 | 0.00 | 0.20 | 0.04 | 74 | 1013.5 |
| 20260905011128 | 62 | 107 | 0.0 | 0.0 | 0.00 | 0.24 | 0.04 | 72 | 1013.0 |
| 20260905010055 | 62 | 101 | 0.0 | 0.0 | 0.00 | 0.31 | 0.04 | 72 | 1012.9 |
| 20260905005045 | 62 | 104 | 0.0 | 0.0 | 0.00 | 0.38 | 0.04 | 70 | 1012.9 |
| 20260905004015 | 63 | 104 | 0.0 | 0.0 | 0.00 | 0.58 | 0.04 | 70 | 1012.9 |
| 20260905002943 | 63 | 98 | 0.0 | 0.0 | 0.00 | 0.89 | 0.04 | 69 | 1012.7 |
| 20260905001906 | 65 | 102 | 0.0 | 0.0 | 0.00 | 0.95 | 0.04 | 64 | 1012.9 |
| 20260905000900 | 65 | 105 | 0.0 | 0.0 | 0.00 | 1.01 | 0.04 | 62 | 1013.0 |
| 20260904235844 | 66 | 126 | 0.0 | 2.0 | 0.00 | 1.01 | 0.04 | 61 | 1013.0 |
| 20260904234821 | 67 | 106 | 0.0 | 0.0 | 0.00 | 1.01 | 0.04 | 62 | 1012.8 |
| 20260904233745 | 68 | 112 | 0.0 | 0.0 | 0.00 | 1.01 | 0.04 | 62 | 1012.9 |
| 20260904232733 | 69 | 106 | 0.0 | 0.0 | 0.01 | 1.01 | 0.04 | 63 | 1012.7 |
| 20260904231727 | 73 | 103 | 0.0 | 0.0 | 0.01 | 1.01 | 0.04 | 55 | 1012.8 |
| 20260904230721 | 71 | 105 | 0.0 | 0.0 | 0.01 | 1.01 | 0.04 | 57 | 1012.8 |
| 20260904225641 | 68 | 101 | 0.0 | 0.0 | 0.01 | 1.01 | 0.04 | 59 | 1012.4 |
| 20260904224614 | 68 | 109 | 0.0 | 0.0 | 0.01 | 1.01 | 0.04 | 66 | 1012.5 |
| 20260904223554 | 64 | 108 | 0.0 | 0.0 | 0.01 | 1.01 | 0.04 | 77 | 1012.3 |
| 20260904222553 | 63 | 108 | 0.0 | 0.0 | 0.00 | 1.00 | 0.03 | 78 | 1012.3 |
| 20260904221541 | 65 | 138 | 0.0 | 0.0 | 0.00 | 1.00 | 0.03 | 70 | 1012.4 |
| 20260904220530 | 65 | 107 | 0.0 | 0.0 | 0.00 | 1.00 | 0.03 | 67 | 1012.2 |
| 20260904215502 | 65 | 106 | 0.0 | 0.0 | 0.00 | 1.00 | 0.03 | 66 | 1012.1 |
| 20260904214439 | 66 | 101 | 0.0 | 0.0 | 0.00 | 1.00 | 0.03 | 69 | 1012.0 |
| 20260904213418 | 67 | 97 | 0.0 | 0.0 | 0.00 | 1.00 | 0.03 | 62 | 1012.1 |
| 20260904212408 | 69 | 119 | 0.0 | 0.0 | 0.00 | 1.00 | 0.03 | 59 | 1012.1 |
| 20260904211357 | 69 | 109 | 0.0 | 0.0 | 0.00 | 1.00 | 0.03 | 64 | 1011.9 |
| 20260904210345 | 68 | 102 | 0.0 | 0.0 | 0.00 | 1.00 | 0.03 | 61 | 1011.8 |
| 20260904205317 | 68 | 73 | 2.0 | 2.0 | 0.00 | 1.00 | 0.03 | 59 | 1012.0 |
| 20260904204313 | 66 | 315 | 1.0 | 2.0 | 0.00 | 1.00 | 0.03 | 64 | 1011.8 |
| 20260904203313 | 67 | 73 | 2.0 | 3.0 | 0.00 | 1.00 | 0.03 | 66 | 1012.2 |
| 20260904202244 | 66 | 96 | 1.0 | 2.0 | 0.00 | 1.00 | 0.03 | 67 | 1012.1 |
| 20260904201239 | 65 | 109 | 0.0 | 1.0 | 0.00 | 1.00 | 0.03 | 68 | 1012.2 |
| 20260904200216 | 66 | 79 | 1.0 | 2.0 | 0.00 | 1.00 | 0.03 | 69 | 1012.1 |
| 20260904195202 | 65 | 112 | 0.0 | 1.0 | 0.00 | 1.00 | 0.03 | 71 | 1012.1 |
| 20260904194133 | 65 | 80 | 1.0 | 1.0 | 0.00 | 1.00 | 0.03 | 71 | 1012.1 |
| 20260904193121 | 64 | 88 | 0.0 | 0.0 | 0.00 | 1.00 | 0.03 | 72 | 1012.3 |
| 20260904192056 | 65 | 136 | 1.0 | 2.0 | 0.00 | 1.00 | 0.03 | 70 | 1012.2 |
| 20260904191029 | 64 | 89 | 1.0 | 2.0 | 0.00 | 1.00 | 0.03 | 72 | 1011.9 |
| 20260904190028 | 64 | 109 | 0.0 | 0.0 | 0.00 | 1.00 | 0.03 | 72 | 1012.2 |
| 20260904185008 | 62 | 103 | 0.0 | 0.0 | 0.00 | 1.00 | 0.03 | 74 | 1012.1 |
| 20260904184007 | 63 | 105 | 0.0 | 0.0 | 0.00 | 1.00 | 0.03 | 72 | 1012.2 |
| 20260904182949 | 61 | 114 | 0.0 | 0.0 | 0.00 | 1.00 | 0.03 | 77 | 1012.4 |
| 20260904181912 | 61 | 108 | 0.0 | 0.0 | 0.00 | 1.00 | 0.03 | 81 | 1012.4 |
| 20260904180908 | 60 | 111 | 0.0 | 0.0 | 0.00 | 1.00 | 0.03 | 83 | 1012.3 |
| 20260904175858 | 59 | 84 | 2.0 | 2.0 | 0.00 | 1.00 | 0.03 | 87 | 1012.4 |
| 20260904174829 | 60 | 98 | 0.0 | 1.0 | 0.00 | 1.00 | 0.03 | 89 | 1012.3 |
| 20260904173819 | 58 | 100 | 0.0 | 0.0 | 0.00 | 1.00 | 0.03 | 93 | 1012.4 |
| 20260904172744 | 57 | 139 | 0.0 | 0.0 | 0.00 | 1.00 | 0.03 | 98 | 1012.5 |
| 20260904171715 | 56 | 115 | 0.0 | 1.0 | 0.00 | 1.00 | 0.03 | 99 | 1012.4 |
| 20260904170640 | 55 | 93 | 0.0 | 0.0 | 0.00 | 1.00 | 0.03 | 99 | 1012.4 |
| 20260904165611 | 55 | 95 | 0.0 | 0.0 | 0.00 | 1.00 | 0.03 | 99 | 1012.3 |
| 20260904164553 | 55 | 100 | 0.0 | 0.0 | 0.00 | 1.00 | 0.03 | 99 | 1012.6 |
| 20260904163538 | 55 | 102 | 0.0 | 0.0 | 0.00 | 1.00 | 0.03 | 99 | 1012.2 |
| 20260904162510 | 55 | 111 | 0.0 | 0.0 | 0.00 | 1.00 | 0.03 | 99 | 1012.4 |
| 20260904161443 | 55 | 106 | 0.0 | 0.0 | 0.00 | 1.00 | 0.03 | 99 | 1012.4 |
| 20260904160410 | 54 | 103 | 0.0 | 0.0 | 0.00 | 1.00 | 0.03 | 99 | 1012.3 |
| 20260904155346 | 54 | 103 | 0.0 | 0.0 | 0.00 | 1.00 | 0.03 | 99 | 1012.2 |
| 20260904154324 | 54 | 103 | 0.0 | 0.0 | 0.00 | 1.00 | 0.03 | 99 | 1012.1 |
| 20260904153320 | 53 | 103 | 0.0 | 0.0 | 0.00 | 1.00 | 0.03 | 99 | 1012.0 |
| 20260904152250 | 53 | 102 | 0.0 | 0.0 | 0.01 | 1.00 | 0.03 | 99 | 1012.0 |
| 20260904151244 | 53 | 104 | 0.0 | 0.0 | 0.01 | 1.00 | 0.03 | 99 | 1011.8 |
| 20260904150208 | 53 | 104 | 0.0 | 0.0 | 0.01 | 1.00 | 0.03 | 99 | 1011.7 |
| 20260904145200 | 53 | 104 | 0.0 | 0.0 | 0.02 | 1.00 | 0.03 | 99 | 1011.6 |
| 20260904144137 | 52 | 104 | 0.0 | 0.0 | 0.02 | 1.00 | 0.03 | 99 | 1011.6 |
| 20260904143116 | 52 | 104 | 0.0 | 0.0 | 0.02 | 1.01 | 0.03 | 99 | 1011.6 |
| 20260904142052 | 52 | 104 | 0.0 | 0.0 | 0.01 | 1.00 | 0.02 | 99 | 1011.4 |
| 20260904141041 | 52 | 104 | 0.0 | 0.0 | 0.01 | 1.00 | 0.02 | 99 | 1011.4 |
| 20260904140035 | 52 | 102 | 0.0 | 0.0 | 0.00 | 1.00 | 0.01 | 99 | 1011.2 |
| 20260904135015 | 52 | 104 | 0.0 | 0.0 | 0.00 | 1.01 | 0.01 | 99 | 1011.1 |
| 20260904133938 | 51 | 104 | 0.0 | 0.0 | 0.00 | 1.01 | 0.01 | 99 | 1011.0 |
| 20260904132928 | 52 | 104 | 0.0 | 0.0 | 0.00 | 1.02 | 0.01 | 99 | 1010.8 |
| 20260904131906 | 51 | 104 | 0.0 | 0.0 | 0.00 | 1.03 | 0.01 | 99 | 1010.8 |
| 20260904130845 | 52 | 104 | 0.0 | 0.0 | 0.00 | 1.03 | 0.01 | 99 | 1010.8 |
| 20260904125840 | 52 | 104 | 0.0 | 0.0 | 0.00 | 1.03 | 0.01 | 99 | 1010.5 |
| 20260904124826 | 52 | 104 | 0.0 | 0.0 | 0.01 | 1.04 | 0.01 | 99 | 1010.5 |
| 20260904123808 | 52 | 104 | 0.0 | 0.0 | 0.01 | 1.06 | 0.01 | 99 | 1010.8 |
| 20260904122758 | 52 | 104 | 0.0 | 0.0 | 0.01 | 1.06 | 0.01 | 99 | 1010.5 |
| 20260904121757 | 52 | 104 | 0.0 | 0.0 | 0.01 | 1.07 | 0.01 | 99 | 1010.4 |
| 20260904120745 | 52 | 104 | 0.0 | 0.0 | 0.01 | 1.07 | 0.01 | 99 | 1010.6 |
| 20260904115715 | 52 | 104 | 0.0 | 0.0 | 0.01 | 1.07 | 0.01 | 99 | 1010.3 |
| 20260904114659 | 52 | 104 | 0.0 | 0.0 | 0.00 | 1.06 | 0.00 | 99 | 1010.3 |
| 20260904113647 | 52 | 104 | 0.0 | 0.0 | 0.00 | 1.06 | 0.00 | 99 | 1010.0 |
| 20260904112625 | 52 | 104 | 0.0 | 0.0 | 0.00 | 1.06 | 0.00 | 99 | 1010.1 |
| 20260904111616 | 52 | 104 | 0.0 | 0.0 | 0.00 | 1.06 | 0.00 | 99 | 1010.0 |
| 20260904110610 | 52 | 104 | 0.0 | 0.0 | 0.00 | 1.06 | 0.00 | 99 | 1010.0 |
| 20260904105604 | 52 | 104 | 0.0 | 0.0 | 0.00 | 1.06 | 0.00 | 99 | 1009.9 |
| 20260904104552 | 52 | 104 | 0.0 | 0.0 | 0.00 | 1.06 | 0.00 | 99 | 1009.9 |
| 20260904103527 | 52 | 104 | 0.0 | 0.0 | 0.00 | 1.06 | 0.00 | 99 | 1009.8 |
| 20260904102505 | 52 | 104 | 0.0 | 0.0 | 0.00 | 1.06 | 0.00 | 99 | 1009.7 |
| 20260904101439 | 52 | 104 | 0.0 | 0.0 | 0.00 | 1.06 | 0.00 | 99 | 1009.6 |
| 20260904100435 | 52 | 104 | 0.0 | 0.0 | 0.00 | 1.06 | 0.00 | 99 | 1009.7 |
| 20260904095420 | 52 | 104 | 0.0 | 0.0 | 0.00 | 1.06 | 0.00 | 99 | 1009.7 |
| 20260904094409 | 52 | 104 | 0.0 | 0.0 | 0.00 | 1.06 | 0.00 | 99 | 1009.7 |
| 20260904093410 | 52 | 104 | 0.0 | 0.0 | 0.00 | 1.06 | 0.00 | 99 | 1009.6 |
| 20260904092356 | 52 | 104 | 0.0 | 0.0 | 0.00 | 1.06 | 0.00 | 99 | 1009.7 |